TimeCST,TemperatureF,Dew PointF,Humidity,Sea Level PressureIn,VisibilityMPH,Wind Direction,Wind SpeedMPH,Gust SpeedMPH,PrecipitationIn,Events,Conditions,WindDirDegrees,DateUTC
12:12 AM,19.4,17.6,93,29.94,10.0,NW,3.5,-,N/A,,Overcast,310,2013-01-03 06:12:00
12:33 AM,19.4,17.6,93,29.94,7.0,NW,8.1,-,N/A,Snow,Light Snow,310,2013-01-03 06:33:00
12:53 AM,19.4,17.6,93,29.95,10.0,WNW,10.4,-,N/A,,Overcast,290,2013-01-03 06:53:00
1:12 AM,19.4,17.6,93,29.95,10.0,NW,6.9,-,N/A,,Overcast,310,2013-01-03 07:12:00
1:33 AM,17.6,15.8,93,29.96,7.0,NW,6.9,-,N/A,Snow,Light Snow,310,2013-01-03 07:33:00
1:53 AM,17.6,15.8,93,29.96,7.0,NW,8.1,-,N/A,Snow,Light Snow,310,2013-01-03 07:53:00
2:12 AM,17.6,12.2,79,29.97,10.0,NW,11.5,18.4,N/A,,Overcast,320,2013-01-03 08:12:00
2:33 AM,15.8,12.2,86,29.97,10.0,NNW,10.4,-,N/A,Snow,Light Snow,330,2013-01-03 08:33:00
2:53 AM,15.8,12.2,86,29.99,10.0,NW,6.9,-,N/A,Snow,Light Snow,320,2013-01-03 08:53:00
3:12 AM,15.8,12.2,86,30.00,7.0,NW,11.5,18.4,N/A,Snow,Light Snow,310,2013-01-03 09:12:00
3:33 AM,14.0,10.4,86,30.00,7.0,NW,9.2,-,N/A,Snow,Light Snow,310,2013-01-03 09:33:00
3:53 AM,12.2,10.4,92,30.02,7.0,NW,10.4,16.1,N/A,Snow,Light Snow,310,2013-01-03 09:53:00
4:12 AM,10.4,8.6,92,30.03,4.0,NW,10.4,-,N/A,Snow,Light Snow,310,2013-01-03 10:12:00
4:33 AM,10.4,6.8,85,30.03,10.0,NNW,8.1,-,N/A,Snow,Light Snow,330,2013-01-03 10:33:00
4:53 AM,8.6,6.8,92,30.03,10.0,NW,6.9,-,N/A,Snow,Light Snow,320,2013-01-03 10:53:00
5:12 AM,8.6,6.8,92,30.04,7.0,NW,5.8,-,N/A,Snow,Light Snow,310,2013-01-03 11:12:00
5:33 AM,8.6,5.0,85,30.04,7.0,WNW,11.5,-,N/A,Snow,Light Snow,290,2013-01-03 11:33:00
5:53 AM,8.6,5.0,85,30.06,7.0,WNW,12.7,16.1,N/A,Snow,Light Snow,290,2013-01-03 11:53:00
6:13 AM,8.6,5.0,85,30.06,5.0,WNW,9.2,-,N/A,Snow,Light Snow,290,2013-01-03 12:13:00
6:33 AM,8.6,5.0,85,30.06,4.0,NW,4.6,-,N/A,Snow,Light Snow,320,2013-01-03 12:33:00
6:53 AM,8.6,5.0,85,30.06,4.0,NW,6.9,-,N/A,Snow,Light Snow,320,2013-01-03 12:53:00
7:13 AM,8.6,3.2,79,30.06,7.0,WNW,4.6,-,N/A,Snow,Light Snow,300,2013-01-03 13:13:00
7:33 AM,6.8,3.2,85,30.06,7.0,WNW,3.5,-,N/A,Snow,Light Snow,300,2013-01-03 13:33:00
7:52 AM,6.8,3.2,85,30.06,7.0,WNW,4.6,-,N/A,Snow,Light Snow,300,2013-01-03 13:52:00
8:13 AM,6.8,3.2,85,30.06,10.0,WNW,4.6,-,N/A,Snow,Light Snow,290,2013-01-03 14:13:00
8:33 AM,6.8,3.2,85,30.06,5.0,WNW,4.6,-,N/A,Snow,Light Snow,290,2013-01-03 14:33:00
8:52 AM,6.8,3.2,85,30.06,3.0,WNW,4.6,-,N/A,Snow,Light Snow,300,2013-01-03 14:52:00
9:33 AM,8.6,3.2,79,30.05,10.0,West,8.1,-,N/A,,Scattered Clouds,270,2013-01-03 15:33:00
9:52 AM,8.6,3.2,79,30.05,10.0,West,9.2,-,N/A,Snow,Light Snow,280,2013-01-03 15:52:00
10:13 AM,10.4,3.2,73,30.05,10.0,WNW,6.9,-,N/A,,Clear,290,2013-01-03 16:13:00
10:33 AM,10.4,3.2,73,30.04,10.0,West,8.1,-,N/A,,Clear,260,2013-01-03 16:33:00
10:52 AM,10.4,3.2,73,30.04,10.0,West,9.2,-,N/A,,Clear,260,2013-01-03 16:52:00
11:13 AM,12.2,3.2,67,30.04,10.0,WSW,8.1,-,N/A,,Clear,250,2013-01-03 17:13:00
11:33 AM,12.2,3.2,67,30.03,10.0,West,8.1,-,N/A,,Clear,260,2013-01-03 17:33:00
11:52 AM,12.2,1.4,62,30.02,10.0,West,6.9,-,N/A,,Clear,260,2013-01-03 17:52:00
12:13 PM,14.0,1.4,57,30.00,10.0,West,6.9,-,N/A,,Clear,260,2013-01-03 18:13:00
12:33 PM,15.8,1.4,53,29.99,10.0,WSW,8.1,-,N/A,,Clear,240,2013-01-03 18:33:00
12:52 PM,15.8,1.4,53,29.97,10.0,WSW,9.2,-,N/A,,Clear,250,2013-01-03 18:52:00
1:13 PM,17.6,1.4,49,29.96,10.0,SW,10.4,-,N/A,,Clear,230,2013-01-03 19:13:00
1:33 PM,17.6,1.4,49,29.95,3.0,West,10.4,18.4,N/A,,Haze,260,2013-01-03 19:33:00
1:52 PM,17.6,1.4,49,29.95,2.5,SW,12.7,17.3,N/A,,Haze,230,2013-01-03 19:52:00
2:13 PM,17.6,3.2,53,29.94,10.0,WSW,9.2,-,N/A,,Clear,240,2013-01-03 20:13:00
2:33 PM,17.6,5.0,58,29.94,10.0,SW,9.2,18.4,N/A,,Clear,230,2013-01-03 20:33:00
2:52 PM,17.6,6.8,63,29.93,10.0,SW,11.5,-,N/A,,Clear,230,2013-01-03 20:52:00
3:13 PM,17.6,6.8,63,29.92,10.0,WSW,9.2,17.3,N/A,,Clear,240,2013-01-03 21:13:00
3:32 PM,17.6,6.8,63,29.92,10.0,SW,12.7,17.3,N/A,,Clear,230,2013-01-03 21:32:00
3:53 PM,17.6,6.8,63,29.91,10.0,WSW,12.7,-,N/A,,Clear,240,2013-01-03 21:53:00
4:13 PM,15.8,6.8,68,29.90,10.0,SW,13.8,20.7,N/A,,Clear,230,2013-01-03 22:13:00
4:32 PM,15.8,6.8,68,29.89,10.0,SW,10.4,18.4,N/A,,Clear,230,2013-01-03 22:32:00
4:53 PM,15.8,6.8,68,29.89,10.0,WSW,10.4,-,N/A,,Clear,240,2013-01-03 22:53:00
5:13 PM,14.0,6.8,73,29.88,10.0,SW,13.8,18.4,N/A,,Clear,230,2013-01-03 23:13:00
5:32 PM,14.0,6.8,73,29.88,10.0,SW,10.4,16.1,N/A,,Clear,230,2013-01-03 23:32:00
5:53 PM,14.0,8.6,79,29.86,10.0,SW,17.3,21.9,N/A,,Clear,230,2013-01-03 23:53:00
6:13 PM,14.0,8.6,79,29.84,10.0,SW,9.2,-,N/A,,Clear,220,2013-01-04 00:13:00
6:32 PM,14.0,8.6,79,29.82,10.0,SW,12.7,21.9,N/A,,Clear,230,2013-01-04 00:32:00
6:53 PM,14.0,8.6,79,29.81,10.0,SW,12.7,17.3,N/A,,Scattered Clouds,230,2013-01-04 00:53:00
7:13 PM,14.0,8.6,79,29.79,10.0,SW,15.0,20.7,N/A,,Clear,220,2013-01-04 01:13:00
7:33 PM,15.8,8.6,73,29.77,10.0,SW,15.0,24.2,N/A,,Clear,230,2013-01-04 01:33:00
7:52 PM,15.8,8.6,73,29.77,10.0,SW,12.7,20.7,N/A,,Clear,220,2013-01-04 01:52:00
8:13 PM,15.8,8.6,73,29.77,10.0,SW,13.8,21.9,N/A,,Clear,230,2013-01-04 02:13:00
8:33 PM,15.8,8.6,73,29.75,10.0,SW,9.2,24.2,N/A,,Clear,230,2013-01-04 02:33:00
8:52 PM,15.8,8.6,73,29.75,10.0,WSW,13.8,20.7,N/A,,Clear,240,2013-01-04 02:52:00
9:13 PM,14.0,8.6,79,29.77,10.0,WSW,9.2,-,N/A,,Clear,240,2013-01-04 03:13:00
9:33 PM,14.0,8.6,79,29.78,10.0,West,11.5,-,N/A,,Clear,260,2013-01-04 03:33:00
9:52 PM,14.0,8.6,79,29.78,10.0,WSW,16.1,21.9,N/A,,Clear,240,2013-01-04 03:52:00
10:13 PM,12.2,8.6,85,29.78,10.0,WSW,10.4,-,N/A,,Clear,240,2013-01-04 04:13:00
10:33 PM,12.2,8.6,85,29.78,10.0,SW,10.4,-,N/A,,Clear,230,2013-01-04 04:33:00
10:52 PM,12.2,8.6,85,29.78,10.0,WSW,8.1,-,N/A,,Clear,240,2013-01-04 04:52:00
11:13 PM,12.2,8.6,85,29.78,10.0,WSW,8.1,-,N/A,,Clear,240,2013-01-04 05:13:00
11:32 PM,12.2,8.6,85,29.78,10.0,WSW,5.8,-,N/A,,Clear,240,2013-01-04 05:32:00
11:53 PM,12.2,8.6,85,29.78,10.0,WSW,6.9,-,N/A,,Clear,240,2013-01-04 05:53:00